Date String (YYYY-MM-DD hh:mm:ss) UTC,Instrument flags,absolute air pressure of the measurement (hPa),sample flow rate (lpm),inlet stack bypass flow (lpm),air temperature of the measurement (°C),ambient temperature measured by the external sensor (°C),aerosol sample conditioner tube jacket temperature (°C),OPC LED temperature (°C),internal box temperature (°C),relative humidity of the measurement (%),span deviation,mass concentration of particles derived from Lorenz-Mie calculation of OPC scattering (μg/m³),mass concentration of particles derived from Lorenz-Mie calculation of OPC scattering (μg/m³),mass concentration of particles derived from Lorenz-Mie calculation of OPC scattering (μg/m³)
DateTimeUTC,F1_M11,P_M11,Q1_M11,Q2_M11,T1_M11,T2_M11,T3_M11,T4_M11,T5_M11,U1_M11,ZSPAN_M11,X2_M11,X0_M11,X1_M11
2023-12-12 19:00:00,SystemResetWarning,0832.8,5.00,000.00,020.1,019.2,000.0,028.4,021.4,20.4,0000.0,0005.27,0008.67,0004.94
2023-12-12 19:01:00,SystemResetWarning,0832.8,5.00,000.00,020.1,019.2,000.0,028.4,021.3,20.4,0000.0,0005.24,0008.63,0004.91
2023-12-12 19:02:00,SystemResetWarning,0832.7,5.00,000.00,020.1,019.2,000.0,028.4,021.3,20.4,0000.0,0005.19,0008.58,0004.88
2023-12-12 19:03:00,SystemResetWarning,0832.9,5.00,000.00,020.1,019.2,000.0,028.4,021.3,20.4,0000.0,0005.13,0008.48,0004.85
2023-12-12 19:04:00,SystemResetWarning,0832.7,5.00,000.00,020.1,019.2,000.0,028.4,021.3,20.4,0000.0,0005.12,0008.50,0004.84
2023-12-12 19:05:00,SystemResetWarning,0832.8,5.00,000.00,020.1,019.2,000.0,028.4,021.3,20.4,0000.0,0005.08,0008.12,0004.81
2023-12-12 19:06:00,SystemResetWarning,0832.7,5.00,000.00,020.1,019.2,000.0,028.4,021.3,20.4,0000.0,0005.05,0007.94,0004.77
2023-12-12 19:07:00,SystemResetWarning,0832.7,5.00,000.00,020.1,019.2,000.0,028.4,021.3,20.4,0000.0,0005.01,0007.92,0004.73
2023-12-12 19:08:00,SystemResetWarning,0832.7,5.00,000.00,020.1,019.2,000.0,028.4,021.3,20.4,0000.0,0005.00,0008.26,0004.70
2023-12-12 19:09:00,SystemResetWarning,0832.7,5.00,000.00,020.1,019.2,000.0,028.4,021.3,20.4,0000.0,0004.99,0008.34,0004.68
2023-12-12 19:10:00,SystemResetWarning,0832.7,5.00,000.00,020.1,019.2,000.0,028.4,021.3,20.4,0000.0,0005.00,0008.51,0004.65
2023-12-12 19:11:00,SystemResetWarning,0832.7,5.00,000.00,020.1,019.2,000.0,028.4,021.3,20.4,0000.0,0004.98,0008.79,0004.63
2023-12-12 19:12:00,SystemResetWarning,0832.7,5.00,000.00,020.1,019.2,000.0,028.4,021.3,20.4,0000.0,0004.98,0008.81,0004.62
2023-12-12 19:13:00,SystemResetWarning,0832.7,5.00,000.00,020.1,019.2,000.0,028.4,021.3,20.5,0000.0,0004.99,0008.86,0004.61
2023-12-12 19:14:00,SystemResetWarning,0832.7,5.00,000.00,020.1,019.2,000.0,028.4,021.3,20.5,0000.0,0005.01,0008.96,0004.62
2023-12-12 19:15:00,SystemResetWarning,0832.7,5.00,000.00,020.1,019.2,000.0,028.4,021.3,20.5,0000.0,0005.01,0008.95,0004.63
2023-12-12 19:16:00,SystemResetWarning,0832.7,5.00,000.00,020.1,019.1,000.0,028.4,021.3,20.5,0000.0,0005.06,0009.10,0004.65
2023-12-12 19:17:00,SystemResetWarning,0832.7,5.00,000.00,020.1,019.1,000.0,028.4,021.3,20.5,0000.0,0005.07,0009.10,0004.67
2023-12-12 19:18:00,SystemResetWarning,0832.7,5.00,000.00,020.1,019.1,000.0,028.4,021.3,20.5,0000.0,0005.09,0009.07,0004.70
2023-12-12 19:19:00,SystemResetWarning,0832.7,5.00,000.00,020.1,019.1,000.0,028.4,021.3,20.5,0000.0,0005.11,0008.75,0004.73
2023-12-12 19:20:00,SystemResetWarning,0832.7,5.00,000.00,020.1,019.1,000.0,028.4,021.3,20.5,0000.0,0005.13,0008.68,0004.77
2023-12-12 19:21:00,SystemResetWarning,0832.7,5.00,000.00,020.1,019.1,000.0,028.4,021.3,20.5,0000.0,0005.11,0008.19,0004.79
2023-12-12 19:22:00,SystemResetWarning,0832.7,5.00,000.00,020.1,019.1,000.0,028.4,021.3,20.5,0000.0,0005.12,0007.79,0004.83
2023-12-12 19:23:00,SystemResetWarning,0832.6,5.01,000.00,020.1,019.1,000.0,028.4,021.3,20.5,0000.0,0005.13,0007.79,0004.86
2023-12-12 19:24:00,SystemResetWarning,0832.7,5.00,000.00,020.1,019.1,000.0,028.4,021.3,20.5,0000.0,0005.18,0007.86,0004.89
2023-12-12 19:25:00,SystemResetWarning,0832.7,5.00,000.00,020.1,019.1,000.0,028.4,021.3,20.5,0000.0,0005.21,0007.82,0004.93
2023-12-12 19:26:00,SystemResetWarning,0832.7,5.01,000.00,020.1,019.1,000.0,028.4,021.3,20.5,0000.0,0005.25,0008.00,0004.96
2023-12-12 19:27:00,SystemResetWarning,0832.6,4.99,000.00,020.1,019.1,000.0,028.4,021.3,20.5,0000.0,0005.28,0008.21,0004.99
2023-12-12 19:28:00,SystemResetWarning,0832.6,5.00,000.00,020.1,019.1,000.0,028.4,021.3,20.4,0000.0,0005.28,0008.14,0005.02
2023-12-12 19:29:00,SystemResetWarning,0832.6,5.00,000.00,020.1,019.1,000.0,028.4,021.3,20.4,0000.0,0005.31,0008.23,0005.03
2023-12-12 19:30:00,SystemResetWarning,0832.5,5.00,000.00,020.1,019.1,000.0,028.4,021.3,20.4,0000.0,0005.33,0008.27,0005.06
2023-12-12 19:31:00,SystemResetWarning,0832.5,5.00,000.00,020.1,019.1,000.0,028.3,021.3,20.5,0000.0,0005.37,0008.31,0005.08
2023-12-12 19:32:00,SystemResetWarning,0832.5,4.99,000.00,020.0,019.1,000.0,028.3,021.3,20.4,0000.0,0005.41,0008.36,0005.12
2023-12-12 19:33:00,SystemResetWarning,0832.5,5.00,000.00,020.0,019.1,000.0,028.3,021.3,20.5,0000.0,0005.46,0008.41,0005.14
2023-12-12 19:34:00,SystemResetWarning,0832.5,5.00,000.00,020.0,019.1,000.0,028.3,021.3,20.5,0000.0,0005.51,0008.67,0005.17
2023-12-12 19:35:00,SystemResetWarning,0832.5,5.00,000.00,020.0,019.1,000.0,028.3,021.3,20.4,0000.0,0005.52,0008.67,0005.19
2023-12-12 19:36:00,SystemResetWarning,0832.5,5.01,000.00,020.0,019.1,000.0,028.3,021.3,20.4,0000.0,0005.53,0008.69,0005.21
2023-12-12 19:37:00,SystemResetWarning,0832.6,5.00,000.00,020.0,019.1,000.0,028.3,021.3,20.5,0000.0,0005.54,0008.63,0005.21
2023-12-12 19:38:00,SystemResetWarning,0832.6,5.01,000.00,020.0,019.1,000.0,028.3,021.3,20.4,0000.0,0005.53,0008.35,0005.23
2023-12-12 19:39:00,SystemResetWarning,0832.5,5.00,000.00,020.0,019.1,000.0,028.3,021.3,20.4,0000.0,0005.55,0008.37,0005.25
2023-12-12 19:40:00,SystemResetWarning,0832.5,5.01,000.00,020.0,019.1,000.0,028.3,021.3,20.4,0000.0,0005.58,0008.89,0005.28
2023-12-12 19:41:00,SystemResetWarning,0832.5,5.00,000.00,020.0,019.1,000.0,028.3,021.3,20.4,0000.0,0005.60,0008.99,0005.29
2023-12-12 19:42:00,SystemResetWarning,0832.5,5.00,000.00,020.0,019.1,000.0,028.3,021.3,20.4,0000.0,0005.61,0008.99,0005.31
2023-12-12 19:43:00,SystemResetWarning,0832.5,4.99,000.00,020.0,019.1,000.0,028.3,021.3,20.4,0000.0,0005.62,0008.96,0005.32
2023-12-12 19:44:00,SystemResetWarning,0832.5,4.99,000.00,020.0,019.1,000.0,028.3,021.3,20.4,0000.0,0005.62,0008.89,0005.34
2023-12-12 19:45:00,SystemResetWarning,0832.5,5.00,000.00,020.0,019.1,000.0,028.3,021.3,20.4,0000.0,0005.63,0008.69,0005.36
2023-12-12 19:46:00,SystemResetWarning,0832.5,5.01,000.00,020.0,019.1,000.0,028.3,021.3,20.4,0000.0,0005.63,0008.60,0005.39
2023-12-12 19:47:00,SystemResetWarning,0832.5,5.01,000.00,020.0,019.1,000.0,028.3,021.3,20.4,0000.0,0005.68,0008.62,0005.42
2023-12-12 19:48:00,SystemResetWarning,0832.5,5.01,000.00,020.0,019.1,000.0,028.3,021.3,20.4,0000.0,0005.71,0008.62,0005.43
2023-12-12 19:49:00,SystemResetWarning,0832.6,5.00,000.00,020.0,019.1,000.0,028.3,021.3,20.4,0000.0,0005.73,0008.64,0005.44
2023-12-12 19:50:00,SystemResetWarning,0832.5,5.00,000.00,020.0,019.1,000.0,028.3,021.3,20.4,0000.0,0005.72,0008.62,0005.43
2023-12-12 19:51:00,SystemResetWarning,0832.5,5.00,000.00,020.0,019.1,000.0,028.3,021.3,20.4,0000.0,0005.73,0008.18,0005.45
2023-12-12 19:52:00,SystemResetWarning,0832.5,5.00,000.00,020.0,019.1,000.0,028.3,021.3,20.4,0000.0,0005.74,0008.05,0005.46
2023-12-12 19:53:00,SystemResetWarning,0832.6,4.99,000.00,020.0,019.0,000.0,028.3,021.3,20.4,0000.0,0005.76,0008.10,0005.47
2023-12-12 19:54:00,SystemResetWarning,0832.5,4.99,000.00,020.0,019.1,000.0,028.3,021.3,20.4,0000.0,0005.78,0008.18,0005.48
2023-12-12 19:55:00,SystemResetWarning,0832.5,5.01,000.00,020.0,019.1,000.0,028.3,021.3,20.5,0000.0,0005.78,0008.13,0005.49
2023-12-12 19:56:00,SystemResetWarning,0832.5,5.01,000.00,020.0,019.1,000.0,028.3,021.2,20.4,0000.0,0005.76,0008.09,0005.48
2023-12-12 19:57:00,SystemResetWarning,0832.5,5.01,000.00,020.0,019.1,000.0,028.3,021.2,20.4,0000.0,0005.75,0008.07,0005.48
2023-12-12 19:58:00,SystemResetWarning,0832.5,5.01,000.00,020.0,019.1,000.0,028.3,021.2,20.5,0000.0,0005.72,0008.03,0005.46
2023-12-12 19:59:00,SystemResetWarning,0832.5,4.99,000.00,020.0,019.1,000.0,028.3,021.2,20.5,0000.0,0005.71,0008.03,0005.47
